TimeMST,TemperatureF,Dew PointF,Humidity,Sea Level PressureIn,VisibilityMPH,Wind Direction,Wind SpeedMPH,Gust SpeedMPH,PrecipitationIn,Events,Conditions,WindDirDegrees,DateUTC
12:56 AM,34.0,27.0,75,30.12,10.0,SW,13.8,-,N/A,,Clear,230,2012-11-14 07:56:00
1:56 AM,35.1,27.0,72,30.12,10.0,SW,12.7,-,N/A,,Partly Cloudy,220,2012-11-14 08:56:00
2:56 AM,35.1,26.1,70,30.12,10.0,SW,11.5,-,N/A,,Clear,230,2012-11-14 09:56:00
3:56 AM,33.1,26.1,75,30.12,10.0,WSW,11.5,-,N/A,,Clear,240,2012-11-14 10:56:00
4:56 AM,30.0,24.1,79,30.12,10.0,SW,5.8,-,N/A,,Clear,220,2012-11-14 11:56:00
5:56 AM,30.9,24.1,76,30.12,10.0,West,9.2,-,N/A,,Clear,260,2012-11-14 12:56:00
7:56 AM,36.0,25.0,64,30.11,10.0,SW,13.8,-,N/A,,Clear,230,2012-11-14 14:56:00
8:56 AM,39.9,26.1,58,30.09,10.0,SW,12.7,-,N/A,,Clear,230,2012-11-14 15:56:00
9:56 AM,44.1,27.0,51,30.08,10.0,SW,12.7,-,N/A,,Clear,230,2012-11-14 16:56:00
10:56 AM,46.0,28.9,51,30.07,10.0,WSW,13.8,-,N/A,,Clear,240,2012-11-14 17:56:00
11:56 AM,46.9,28.9,50,30.03,10.0,WSW,12.7,-,N/A,,Mostly Cloudy,250,2012-11-14 18:56:00
12:56 PM,48.9,28.0,44,30.02,10.0,West,15.0,-,N/A,,Clear,280,2012-11-14 19:56:00
1:56 PM,46.9,28.0,48,30.02,10.0,West,13.8,-,N/A,,Clear,270,2012-11-14 20:56:00
2:56 PM,45.0,28.0,52,30.03,10.0,West,12.7,-,N/A,,Clear,260,2012-11-14 21:56:00
3:56 PM,37.9,27.0,65,30.05,10.0,West,8.1,-,N/A,,Clear,260,2012-11-14 22:56:00
4:56 PM,33.1,26.1,75,30.07,10.0,West,10.4,-,N/A,,Clear,260,2012-11-14 23:56:00
5:56 PM,33.1,27.0,78,30.10,10.0,West,11.5,-,N/A,,Clear,270,2012-11-15 00:56:00
6:56 PM,34.0,28.0,79,30.11,10.0,West,9.2,-,N/A,,Scattered Clouds,260,2012-11-15 01:56:00
7:56 PM,32.0,26.1,79,30.12,10.0,WSW,10.4,-,N/A,,Clear,250,2012-11-15 02:56:00
8:56 PM,33.1,27.0,78,30.13,10.0,West,10.4,-,N/A,,Clear,270,2012-11-15 03:56:00
9:56 PM,30.9,26.1,82,30.14,10.0,West,11.5,-,N/A,,Clear,270,2012-11-15 04:56:00
10:56 PM,28.9,25.0,85,30.17,10.0,West,10.4,-,N/A,,Clear,280,2012-11-15 05:56:00
11:56 PM,28.0,25.0,88,30.19,10.0,WNW,10.4,-,N/A,,Clear,300,2012-11-15 06:56:00